Location: San Gennaro Vesuviano
(40.8833°N, 14.5333°E)
Time: 11:02:58
(UTC+00:00)

Cosmos 1766 Rocket - Pass Details

Date: 22 April 2021
Orbit: 604 x 633 km, 82.5° (Epoch: 10 May)

Event Time Altitude Azimuth Distance (km) Brightness Sun altitude
Rises 20:30:22 0° 348° (NNW) 2,869 7.9 -26.4°
Reaches altitude 10° 20:32:36 10° 345° (NNW) 1,963 6.9 -26.7°
Enters shadow 20:36:22 55° 298° (WNW) 734 4.1 -27.1°
